Time,TemperatureF,DewpointF,PressureIn,WindDirection,WindDirectionDegrees,WindSpeedMPH,WindSpeedGustMPH,Humidity,HourlyPrecipIn,Conditions,Clouds,dailyrainin,SoftwareType,DateUTC
2013-02-14 06:00:00,35.9,33.8,30.07,South,180,0.0,0.0,92,0.00,,---,0.00,VWS V14.01,2013-02-14 12:00:00,
2013-02-14 06:31:00,34.8,33.0,30.08,South,182,0.0,0.0,93,0.00,,---,0.00,VWS V14.01,2013-02-14 12:31:00,
2013-02-14 06:32:00,34.7,32.9,30.08,South,182,0.0,0.0,93,0.00,,---,0.00,VWS V14.01,2013-02-14 12:32:00,
2013-02-14 06:37:00,34.6,32.8,30.08,South,182,0.0,0.0,93,0.00,,---,0.00,VWS V14.01,2013-02-14 12:37:00,
2013-02-14 06:42:00,34.3,32.2,30.08,South,182,0.0,0.0,92,0.00,,---,0.00,VWS V14.01,2013-02-14 12:42:00,
2013-02-14 06:48:00,34.0,31.9,30.08,South,182,0.0,0.0,92,0.00,,---,0.00,VWS V14.01,2013-02-14 12:48:00,
2013-02-14 06:53:00,33.7,31.6,30.08,South,182,0.0,0.0,92,0.00,,---,0.00,VWS V14.01,2013-02-14 12:53:00,
2013-02-14 06:58:00,33.3,31.2,30.08,South,182,0.0,0.0,92,0.00,,---,0.00,VWS V14.01,2013-02-14 12:58:00,
2013-02-14 07:03:00,33.0,30.9,30.08,South,182,0.0,0.0,92,0.00,,---,0.00,VWS V14.01,2013-02-14 13:03:00,
2013-02-14 07:08:00,32.7,30.6,30.08,South,182,0.0,0.0,92,0.00,,---,0.00,VWS V14.01,2013-02-14 13:08:00,
2013-02-14 07:13:00,32.6,30.5,30.08,South,182,0.0,0.0,92,0.00,,---,0.00,VWS V14.01,2013-02-14 13:13:00,
2013-02-14 07:18:00,32.6,30.8,30.08,South,182,0.0,0.0,93,0.00,,---,0.00,VWS V14.01,2013-02-14 13:18:00,
2013-02-14 07:23:00,32.8,31.0,30.09,South,182,0.0,0.0,93,0.00,,---,0.00,VWS V14.01,2013-02-14 13:23:00,
2013-02-14 07:28:00,33.0,31.5,30.09,South,182,0.0,0.0,94,0.00,,---,0.00,VWS V14.01,2013-02-14 13:28:00,
2013-02-14 07:33:00,33.3,31.8,30.09,South,182,0.0,0.0,94,0.00,,---,0.00,VWS V14.01,2013-02-14 13:33:00,
2013-02-14 07:38:00,33.8,32.3,30.09,South,182,0.0,0.0,94,0.00,,---,0.00,VWS V14.01,2013-02-14 13:38:00,
2013-02-14 07:43:00,34.4,33.1,30.09,South,182,0.0,0.0,95,0.00,,---,0.00,VWS V14.01,2013-02-14 13:43:00,
2013-02-14 07:48:00,35.1,33.8,30.09,South,182,0.0,0.0,95,0.00,,---,0.00,VWS V14.01,2013-02-14 13:48:00,
2013-02-14 07:53:00,35.9,34.6,30.09,South,182,0.0,0.0,95,0.00,,---,0.00,VWS V14.01,2013-02-14 13:53:00,
2013-02-14 07:59:00,36.5,35.2,30.09,South,182,0.0,0.0,95,0.00,,---,0.00,VWS V14.01,2013-02-14 13:59:00,
2013-02-14 08:04:00,37.2,35.9,30.10,South,182,0.0,0.0,95,0.00,,---,0.00,VWS V14.01,2013-02-14 14:04:00,
2013-02-14 08:09:00,37.8,36.2,30.10,South,182,1.0,2.0,94,0.00,,---,0.00,VWS V14.01,2013-02-14 14:09:00,
2013-02-14 08:14:00,38.5,36.7,30.10,South,182,0.0,0.0,93,0.00,,---,0.00,VWS V14.01,2013-02-14 14:14:00,
2013-02-14 08:19:00,39.1,37.0,30.10,South,182,2.0,2.0,92,0.00,,---,0.00,VWS V14.01,2013-02-14 14:19:00,
2013-02-14 08:24:00,39.5,37.1,30.10,South,182,3.0,4.0,91,0.00,,---,0.00,VWS V14.01,2013-02-14 14:24:00,
2013-02-14 08:29:00,40.1,37.4,30.10,South,182,2.0,4.0,90,0.00,,---,0.00,VWS V14.01,2013-02-14 14:29:00,
2013-02-14 08:34:00,40.8,37.8,30.11,South,182,2.0,3.0,89,0.00,,---,0.00,VWS V14.01,2013-02-14 14:34:00,
2013-02-14 08:39:00,41.4,38.4,30.11,South,180,2.0,3.0,89,0.00,,---,0.00,VWS V14.01,2013-02-14 14:39:00,
2013-02-14 08:44:00,41.9,38.3,30.11,South,180,3.0,4.0,87,0.00,,---,0.00,VWS V14.01,2013-02-14 14:44:00,
2013-02-14 08:49:00,42.3,38.7,30.11,South,180,3.0,4.0,87,0.00,,---,0.00,VWS V14.01,2013-02-14 14:49:00,
2013-02-14 08:54:00,42.7,38.8,30.11,South,179,2.0,3.0,86,0.00,,---,0.00,VWS V14.01,2013-02-14 14:54:00,
2013-02-14 08:59:00,43.3,39.4,30.11,South,178,0.0,3.0,86,0.00,,---,0.00,VWS V14.01,2013-02-14 14:59:00,
2013-02-14 09:05:00,43.8,39.6,30.11,South,178,1.0,2.0,85,0.00,,---,0.00,VWS V14.01,2013-02-14 15:05:00,
2013-02-14 09:10:00,44.6,40.1,30.11,SSE,160,3.0,3.0,84,0.00,,---,0.00,VWS V14.01,2013-02-14 15:10:00,
2013-02-14 09:15:00,44.9,40.1,30.11,SSE,154,4.0,4.0,83,0.00,,---,0.00,VWS V14.01,2013-02-14 15:15:00,
2013-02-14 09:20:00,45.6,40.4,30.11,SE,145,1.0,5.0,82,0.00,,---,0.00,VWS V14.01,2013-02-14 15:20:00,
2013-02-14 09:25:00,46.5,41.0,30.11,SE,146,3.0,4.0,81,0.00,,---,0.00,VWS V14.01,2013-02-14 15:25:00,
2013-02-14 09:30:00,47.4,41.2,30.11,South,169,0.0,1.0,79,0.00,,---,0.00,VWS V14.01,2013-02-14 15:30:00,
2013-02-14 09:35:00,48.5,42.3,30.11,SSE,167,0.0,2.0,79,0.00,,---,0.00,VWS V14.01,2013-02-14 15:35:00,
2013-02-14 09:40:00,49.4,40.8,30.11,WSW,238,3.0,5.0,72,0.00,,---,0.00,VWS V14.01,2013-02-14 15:40:00,
2013-02-14 09:45:00,49.9,40.5,30.11,SW,221,2.0,5.0,70,0.00,,---,0.00,VWS V14.01,2013-02-14 15:45:00,
2013-02-14 09:50:00,50.3,40.5,30.11,SSW,211,1.0,5.0,69,0.00,,---,0.00,VWS V14.01,2013-02-14 15:50:00,
2013-02-14 09:55:00,50.7,41.3,30.11,SW,229,4.0,5.0,70,0.00,,---,0.00,VWS V14.01,2013-02-14 15:55:00,
2013-02-14 10:00:00,51.5,41.3,30.11,SSW,200,4.0,6.0,68,0.00,,---,0.00,VWS V14.01,2013-02-14 16:00:00,
2013-02-14 10:06:00,51.9,40.9,30.11,SSW,205,1.0,3.0,66,0.00,,---,0.00,VWS V14.01,2013-02-14 16:06:00,
2013-02-14 10:11:00,52.5,41.1,30.11,SSE,161,3.0,3.0,65,0.00,,---,0.00,VWS V14.01,2013-02-14 16:11:00,
2013-02-14 10:16:00,53.5,41.6,30.11,South,174,4.0,4.0,64,0.00,,---,0.00,VWS V14.01,2013-02-14 16:16:00,
2013-02-14 10:21:00,54.2,41.5,30.11,WSW,249,2.0,4.0,62,0.00,,---,0.00,VWS V14.01,2013-02-14 16:21:00,
2013-02-14 10:26:00,55.1,41.5,30.10,SSW,213,2.0,4.0,60,0.00,,---,0.00,VWS V14.01,2013-02-14 16:26:00,
2013-02-14 10:31:00,55.7,40.7,30.10,SW,218,5.0,8.0,57,0.00,,---,0.00,VWS V14.01,2013-02-14 16:31:00,
2013-02-14 10:36:00,55.7,41.2,30.10,SSW,202,7.0,7.0,58,0.00,,---,0.00,VWS V14.01,2013-02-14 16:36:00,
2013-02-14 10:41:00,56.1,40.6,30.11,SW,235,5.0,5.0,56,0.00,,---,0.00,VWS V14.01,2013-02-14 16:41:00,
2013-02-14 10:46:00,56.9,40.4,30.10,SW,225,6.0,8.0,54,0.00,,---,0.00,VWS V14.01,2013-02-14 16:46:00,
2013-02-14 10:51:00,57.3,40.8,30.10,SSW,204,3.0,7.0,54,0.00,,---,0.00,VWS V14.01,2013-02-14 16:51:00,
2013-02-14 10:56:00,58.0,40.5,30.10,SSW,200,7.0,7.0,52,0.00,,---,0.00,VWS V14.01,2013-02-14 16:56:00,
2013-02-14 11:02:00,58.2,40.2,30.10,SW,224,6.0,10.0,51,0.00,,---,0.00,VWS V14.01,2013-02-14 17:02:00,
2013-02-14 11:07:00,58.6,40.5,30.09,SW,230,4.0,9.0,51,0.00,,---,0.00,VWS V14.01,2013-02-14 17:07:00,
2013-02-14 11:12:00,58.9,40.8,30.09,WNW,288,6.0,6.0,51,0.00,,---,0.00,VWS V14.01,2013-02-14 17:12:00,
2013-02-14 11:17:00,59.2,40.6,30.09,South,182,1.0,5.0,50,0.00,,---,0.00,VWS V14.01,2013-02-14 17:17:00,
2013-02-14 11:22:00,59.5,40.9,30.09,SW,223,4.0,7.0,50,0.00,,---,0.00,VWS V14.01,2013-02-14 17:22:00,
2013-02-14 11:27:00,59.9,41.2,30.09,SSW,199,3.0,6.0,50,0.00,,---,0.00,VWS V14.01,2013-02-14 17:27:00,
2013-02-14 11:32:00,60.3,42.1,30.09,South,186,5.0,8.0,51,0.00,,---,0.00,VWS V14.01,2013-02-14 17:32:00,
2013-02-14 11:37:00,60.5,40.7,30.08,SSW,205,7.0,11.0,48,0.00,,---,0.00,VWS V14.01,2013-02-14 17:37:00,
2013-02-14 11:42:00,60.7,41.5,30.08,SW,217,8.0,10.0,49,0.00,,---,0.00,VWS V14.01,2013-02-14 17:42:00,
2013-02-14 11:47:00,61.1,41.8,30.08,SSE,157,3.0,7.0,49,0.00,,---,0.00,VWS V14.01,2013-02-14 17:47:00,
2013-02-14 11:52:00,61.5,41.7,30.08,SSE,165,3.0,10.0,48,0.00,,---,0.00,VWS V14.01,2013-02-14 17:52:00,
2013-02-14 11:57:00,61.8,40.3,30.07,SSW,197,3.0,8.0,45,0.00,,---,0.00,VWS V14.01,2013-02-14 17:57:00,
2013-02-14 12:03:00,61.7,41.3,30.07,SW,215,4.0,6.0,47,0.00,,---,0.00,VWS V14.01,2013-02-14 18:03:00,
2013-02-14 12:08:00,62.3,40.1,30.07,South,178,5.0,8.0,44,0.00,,---,0.00,VWS V14.01,2013-02-14 18:08:00,
2013-02-14 12:13:00,62.6,39.2,30.07,South,187,3.0,9.0,42,0.00,,---,0.00,VWS V14.01,2013-02-14 18:13:00,
2013-02-14 12:18:00,63.1,39.0,30.07,South,189,2.0,9.0,41,0.00,,---,0.00,VWS V14.01,2013-02-14 18:18:00,
2013-02-14 12:23:00,63.8,40.3,30.07,South,182,9.0,10.0,42,0.00,,---,0.00,VWS V14.01,2013-02-14 18:23:00,
2013-02-14 12:28:00,64.0,39.8,30.06,SSW,207,5.0,5.0,41,0.00,,---,0.00,VWS V14.01,2013-02-14 18:28:00,
2013-02-14 12:33:00,64.1,38.7,30.06,WSW,247,7.0,10.0,39,0.00,,---,0.00,VWS V14.01,2013-02-14 18:33:00,
2013-02-14 12:38:00,64.4,38.9,30.05,SW,217,1.0,8.0,39,0.00,,---,0.00,VWS V14.01,2013-02-14 18:38:00,
2013-02-14 12:43:00,64.9,39.4,30.05,SSW,196,5.0,7.0,39,0.00,,---,0.00,VWS V14.01,2013-02-14 18:43:00,
2013-02-14 12:48:00,64.6,39.1,30.05,SE,140,4.0,7.0,39,0.00,,---,0.00,VWS V14.01,2013-02-14 18:48:00,
2013-02-14 12:54:00,64.9,38.0,30.05,SW,235,7.0,7.0,37,0.00,,---,0.00,VWS V14.01,2013-02-14 18:54:00,
2013-02-14 12:59:00,65.0,38.8,30.05,SSW,200,7.0,10.0,38,0.00,,---,0.00,VWS V14.01,2013-02-14 18:59:00,
2013-02-14 13:04:00,64.8,37.9,30.04,SE,130,3.0,7.0,37,0.00,,---,0.00,VWS V14.01,2013-02-14 19:04:00,
2013-02-14 13:09:00,64.9,38.7,30.04,SSW,209,5.0,8.0,38,0.00,,---,0.00,VWS V14.01,2013-02-14 19:09:00,
2013-02-14 13:14:00,65.0,37.4,30.04,South,186,0.0,7.0,36,0.00,,---,0.00,VWS V14.01,2013-02-14 19:14:00,
2013-02-14 13:19:00,65.3,37.0,30.03,SSW,208,6.0,9.0,35,0.00,,---,0.00,VWS V14.01,2013-02-14 19:19:00,
2013-02-14 13:24:00,65.4,37.8,30.03,SW,214,6.0,6.0,36,0.00,,---,0.00,VWS V14.01,2013-02-14 19:24:00,
2013-02-14 13:29:00,65.4,36.3,30.02,South,191,5.0,7.0,34,0.00,,---,0.00,VWS V14.01,2013-02-14 19:29:00,
2013-02-14 13:34:00,65.4,37.1,30.02,ESE,123,8.0,8.0,35,0.00,,---,0.00,VWS V14.01,2013-02-14 19:34:00,
2013-02-14 13:39:00,65.5,36.4,30.02,South,186,7.0,10.0,34,0.00,,---,0.00,VWS V14.01,2013-02-14 19:39:00,
2013-02-14 13:44:00,65.7,36.6,30.02,SSE,167,3.0,4.0,34,0.00,,---,0.00,VWS V14.01,2013-02-14 19:44:00,
2013-02-14 13:49:00,66.1,34.6,30.01,SSE,167,0.0,3.0,31,0.00,,---,0.00,VWS V14.01,2013-02-14 19:49:00,
2013-02-14 13:55:00,66.1,36.9,30.01,South,186,3.0,7.0,34,0.00,,---,0.00,VWS V14.01,2013-02-14 19:55:00,
2013-02-14 14:00:00,66.4,36.5,30.01,SSW,210,2.0,4.0,33,0.00,,---,0.00,VWS V14.01,2013-02-14 20:00:00,
2013-02-14 14:05:00,67.2,35.6,30.01,SW,225,5.0,11.0,31,0.00,,---,0.00,VWS V14.01,2013-02-14 20:05:00,
2013-02-14 14:10:00,67.7,35.2,30.01,NW,313,2.0,5.0,30,0.00,,---,0.00,VWS V14.01,2013-02-14 20:10:00,
2013-02-14 14:15:00,67.9,33.6,30.01,SSW,196,8.0,9.0,28,0.00,,---,0.00,VWS V14.01,2013-02-14 20:15:00,
2013-02-14 14:20:00,67.4,34.9,30.00,SW,234,3.0,5.0,30,0.00,,---,0.00,VWS V14.01,2013-02-14 20:20:00,
2013-02-14 14:25:00,67.7,34.3,30.00,SW,234,0.0,0.0,29,0.00,,---,0.00,VWS V14.01,2013-02-14 20:25:00,
2013-02-14 14:30:00,68.0,36.3,30.00,SSW,203,0.0,5.0,31,0.00,,---,0.00,VWS V14.01,2013-02-14 20:30:00,
2013-02-14 14:35:00,67.8,35.3,30.00,SSW,193,0.0,2.0,30,0.00,,---,0.00,VWS V14.01,2013-02-14 20:35:00,
2013-02-14 14:40:00,67.7,30.6,30.00,SW,236,3.0,8.0,25,0.00,,---,0.00,VWS V14.01,2013-02-14 20:40:00,
2013-02-14 14:45:00,67.8,32.6,30.00,SSW,202,3.0,4.0,27,0.00,,---,0.00,VWS V14.01,2013-02-14 20:45:00,
2013-02-14 14:50:00,68.0,33.7,30.00,SSW,211,0.0,3.0,28,0.00,,---,0.00,VWS V14.01,2013-02-14 20:50:00,
2013-02-14 14:55:00,68.5,32.3,30.00,SW,234,2.0,3.0,26,0.00,,---,0.00,VWS V14.01,2013-02-14 20:55:00,
2013-02-14 15:01:00,68.2,33.9,29.99,SSW,212,4.0,11.0,28,0.00,,---,0.00,VWS V14.01,2013-02-14 21:01:00,
2013-02-14 15:06:00,68.3,34.0,29.99,SSW,213,6.0,6.0,28,0.00,,---,0.00,VWS V14.01,2013-02-14 21:06:00,
2013-02-14 15:11:00,68.0,32.8,29.99,SSW,200,5.0,10.0,27,0.00,,---,0.00,VWS V14.01,2013-02-14 21:11:00,
2013-02-14 15:16:00,67.4,32.3,29.99,SE,138,0.0,3.0,27,0.00,,---,0.00,VWS V14.01,2013-02-14 21:16:00,
2013-02-14 15:21:00,67.2,33.0,29.99,SSW,202,2.0,3.0,28,0.00,,---,0.00,VWS V14.01,2013-02-14 21:21:00,
2013-02-14 15:26:00,67.4,33.2,29.99,South,180,0.0,1.0,28,0.00,,---,0.00,VWS V14.01,2013-02-14 21:26:00,
2013-02-14 15:31:00,67.7,33.5,29.99,SW,221,3.0,6.0,28,0.00,,---,0.00,VWS V14.01,2013-02-14 21:31:00,
2013-02-14 15:36:00,67.9,33.6,29.99,WSW,248,4.0,5.0,28,0.00,,---,0.00,VWS V14.01,2013-02-14 21:36:00,
2013-02-14 15:41:00,68.1,33.8,29.99,WSW,239,4.0,6.0,28,0.00,,---,0.00,VWS V14.01,2013-02-14 21:41:00,
2013-02-14 15:46:00,68.0,33.7,29.99,South,180,3.0,3.0,28,0.00,,---,0.00,VWS V14.01,2013-02-14 21:46:00,
2013-02-14 15:51:00,67.8,32.6,30.00,SSW,211,2.0,7.0,27,0.00,,---,0.00,VWS V14.01,2013-02-14 21:51:00,
2013-02-14 15:56:00,67.8,34.4,29.99,SSW,213,0.0,2.0,29,0.00,,---,0.00,VWS V14.01,2013-02-14 21:56:00,
2013-02-14 16:02:00,67.7,34.3,29.99,ESE,111,7.0,7.0,29,0.00,,---,0.00,VWS V14.01,2013-02-14 22:02:00,
2013-02-14 16:07:00,67.8,32.6,29.99,West,277,2.0,9.0,27,0.00,,---,0.00,VWS V14.01,2013-02-14 22:07:00,
2013-02-14 16:12:00,68.4,33.1,29.99,West,277,2.0,4.0,27,0.00,,---,0.00,VWS V14.01,2013-02-14 22:12:00,
2013-02-14 16:17:00,68.5,33.2,29.99,WSW,248,5.0,11.0,27,0.00,,---,0.00,VWS V14.01,2013-02-14 22:17:00,
2013-02-14 16:22:00,68.3,34.0,29.99,SSW,204,3.0,3.0,28,0.00,,---,0.00,VWS V14.01,2013-02-14 22:22:00,
2013-02-14 16:27:00,68.0,33.7,29.99,SSE,154,1.0,5.0,28,0.00,,---,0.00,VWS V14.01,2013-02-14 22:27:00,
2013-02-14 16:32:00,67.9,33.6,29.99,SSW,200,3.0,4.0,28,0.00,,---,0.00,VWS V14.01,2013-02-14 22:32:00,
2013-02-14 16:37:00,67.9,34.5,29.99,SSE,168,4.0,5.0,29,0.00,,---,0.00,VWS V14.01,2013-02-14 22:37:00,
2013-02-14 16:42:00,67.5,35.0,29.99,SSW,192,4.0,8.0,30,0.00,,---,0.00,VWS V14.01,2013-02-14 22:42:00,
2013-02-14 16:47:00,67.4,34.1,29.99,SSE,167,1.0,3.0,29,0.00,,---,0.00,VWS V14.01,2013-02-14 22:47:00,
2013-02-14 16:52:00,67.0,33.7,29.99,SE,128,1.0,2.0,29,0.00,,---,0.00,VWS V14.01,2013-02-14 22:52:00,
2013-02-14 16:58:00,67.0,34.6,29.99,SSE,165,0.0,3.0,30,0.00,,---,0.00,VWS V14.01,2013-02-14 22:58:00,
2013-02-14 17:03:00,66.9,35.3,29.99,SSE,165,2.0,2.0,31,0.00,,---,0.00,VWS V14.01,2013-02-14 23:03:00,
2013-02-14 17:08:00,66.7,35.1,29.99,SE,138,1.0,4.0,31,0.00,,---,0.00,VWS V14.01,2013-02-14 23:08:00,
2013-02-14 17:13:00,66.4,34.9,29.99,SE,138,1.0,2.0,31,0.00,,---,0.00,VWS V14.01,2013-02-14 23:13:00,
2013-02-14 17:18:00,66.2,35.5,29.99,South,186,0.0,4.0,32,0.00,,---,0.00,VWS V14.01,2013-02-14 23:18:00,
2013-02-14 17:23:00,66.0,36.1,29.99,SE,135,4.0,6.0,33,0.00,,---,0.00,VWS V14.01,2013-02-14 23:23:00,
2013-02-14 17:28:00,65.5,35.7,29.99,SE,134,3.0,4.0,33,0.00,,---,0.00,VWS V14.01,2013-02-14 23:28:00,
2013-02-14 17:33:00,65.1,36.8,29.99,SE,134,2.0,4.0,35,0.00,,---,0.00,VWS V14.01,2013-02-14 23:33:00,
2013-02-14 17:38:00,64.8,36.5,29.99,SE,143,2.0,3.0,35,0.00,,---,0.00,VWS V14.01,2013-02-14 23:38:00,
2013-02-14 17:43:00,64.7,35.7,29.99,South,177,0.0,2.0,34,0.00,,---,0.00,VWS V14.01,2013-02-14 23:43:00,
2013-02-14 17:48:00,64.5,34.8,29.99,SSE,166,0.0,3.0,33,0.00,,---,0.00,VWS V14.01,2013-02-14 23:48:00,
2013-02-14 17:53:00,64.3,34.6,29.99,SSE,165,0.0,3.0,33,0.00,,---,0.00,VWS V14.01,2013-02-14 23:53:00,
2013-02-14 17:59:00,64.0,35.1,29.99,SSE,165,0.0,2.0,34,0.00,,---,0.00,VWS V14.01,2013-02-14 23:59:00,
2013-02-14 18:04:00,63.6,37.5,30.00,SSE,165,0.0,0.0,38,0.00,,---,0.00,VWS V14.01,2013-02-15 00:04:00,
2013-02-14 18:09:00,63.1,40.3,30.00,SSE,165,0.0,0.0,43,0.00,,---,0.00,VWS V14.01,2013-02-15 00:09:00,
2013-02-14 18:14:00,62.5,40.9,30.00,SSE,165,0.0,0.0,45,0.00,,---,0.00,VWS V14.01,2013-02-15 00:14:00,
2013-02-14 18:19:00,61.8,40.3,30.00,SSE,165,0.0,0.0,45,0.00,,---,0.00,VWS V14.01,2013-02-15 00:19:00,
2013-02-14 18:24:00,61.2,40.3,30.00,SSE,165,0.0,1.0,46,0.00,,---,0.00,VWS V14.01,2013-02-15 00:24:00,
2013-02-14 18:29:00,60.8,40.5,30.00,SSE,165,0.0,3.0,47,0.00,,---,0.00,VWS V14.01,2013-02-15 00:29:00,
2013-02-14 18:34:00,60.7,40.9,30.00,SSE,165,1.0,2.0,48,0.00,,---,0.00,VWS V14.01,2013-02-15 00:34:00,
2013-02-14 18:39:00,60.4,41.7,30.00,SSE,165,1.0,2.0,50,0.00,,---,0.00,VWS V14.01,2013-02-15 00:39:00,
2013-02-14 18:44:00,60.0,43.3,30.00,SSE,165,1.0,2.0,54,0.00,,---,0.00,VWS V14.01,2013-02-15 00:44:00,
2013-02-14 18:49:00,59.6,43.0,30.01,SSE,165,0.0,0.0,54,0.00,,---,0.00,VWS V14.01,2013-02-15 00:49:00,
2013-02-14 18:54:00,59.2,43.1,30.01,SSE,165,0.0,0.0,55,0.00,,---,0.00,VWS V14.01,2013-02-15 00:54:00,
2013-02-14 19:00:00,58.8,44.1,30.00,SSE,165,0.0,0.0,58,0.00,,---,0.00,VWS V14.01,2013-02-15 01:00:00,
2013-02-14 19:05:00,58.4,43.7,30.01,SSE,165,0.0,0.0,58,0.00,,---,0.00,VWS V14.01,2013-02-15 01:05:00,
2013-02-14 19:10:00,57.8,43.1,30.01,SSE,165,0.0,0.0,58,0.00,,---,0.00,VWS V14.01,2013-02-15 01:10:00,
2013-02-14 19:15:00,57.3,43.1,30.01,SSE,165,0.0,0.0,59,0.00,,---,0.00,VWS V14.01,2013-02-15 01:15:00,
2013-02-14 19:20:00,56.6,42.5,30.01,SSE,165,0.0,0.0,59,0.00,,---,0.00,VWS V14.01,2013-02-15 01:20:00,
2013-02-14 19:25:00,56.0,42.8,30.01,SSE,165,0.0,0.0,61,0.00,,---,0.00,VWS V14.01,2013-02-15 01:25:00,
2013-02-14 19:30:00,55.4,42.6,30.01,SSE,165,0.0,0.0,62,0.00,,---,0.00,VWS V14.01,2013-02-15 01:30:00,
2013-02-14 19:35:00,54.9,40.9,30.01,SSE,165,0.0,0.0,59,0.00,,---,0.00,VWS V14.01,2013-02-15 01:35:00,
2013-02-14 19:40:00,54.7,41.5,30.01,SSE,165,0.0,0.0,61,0.00,,---,0.00,VWS V14.01,2013-02-15 01:40:00,
2013-02-14 19:45:00,54.3,40.7,30.02,SSE,165,0.0,1.0,60,0.00,,---,0.00,VWS V14.01,2013-02-15 01:45:00,
2013-02-14 19:51:00,53.4,39.9,30.02,SSE,165,0.0,0.0,60,0.00,,---,0.00,VWS V14.01,2013-02-15 01:51:00,
2013-02-14 19:56:00,53.4,39.9,30.02,SSE,165,0.0,0.0,60,0.00,,---,0.00,VWS V14.01,2013-02-15 01:56:00,
2013-02-14 20:01:00,53.1,40.4,30.02,SSE,165,0.0,0.0,62,0.00,,---,0.00,VWS V14.01,2013-02-15 02:01:00,
2013-02-14 20:06:00,52.8,39.3,30.02,SSE,165,0.0,1.0,60,0.00,,---,0.00,VWS V14.01,2013-02-15 02:06:00,
2013-02-14 20:11:00,53.0,39.5,30.02,SSE,165,0.0,2.0,60,0.00,,---,0.00,VWS V14.01,2013-02-15 02:11:00,
2013-02-14 20:16:00,53.3,39.8,30.03,SSE,165,0.0,0.0,60,0.00,,---,0.00,VWS V14.01,2013-02-15 02:16:00,
2013-02-14 20:21:00,53.5,40.0,30.03,SSE,165,0.0,0.0,60,0.00,,---,0.00,VWS V14.01,2013-02-15 02:21:00,
2013-02-14 20:26:00,53.5,40.4,30.03,SSE,165,0.0,0.0,61,0.00,,---,0.00,VWS V14.01,2013-02-15 02:26:00,
2013-02-14 20:31:00,53.1,40.4,30.03,SSE,165,0.0,0.0,62,0.00,,---,0.00,VWS V14.01,2013-02-15 02:31:00,
2013-02-14 20:36:00,52.6,40.4,30.03,SSE,165,0.0,0.0,63,0.00,,---,0.00,VWS V14.01,2013-02-15 02:36:00,
2013-02-14 20:41:00,52.3,40.1,30.03,SSE,165,0.0,0.0,63,0.00,,---,0.00,VWS V14.01,2013-02-15 02:41:00,
2013-02-14 20:46:00,52.4,40.2,30.03,SSE,165,0.0,0.0,63,0.00,,---,0.00,VWS V14.01,2013-02-15 02:46:00,
2013-02-14 20:52:00,52.7,40.5,30.03,SSE,165,0.0,0.0,63,0.00,,---,0.00,VWS V14.01,2013-02-15 02:52:00,
2013-02-14 20:57:00,52.9,40.2,30.03,SSE,165,0.0,0.0,62,0.00,,---,0.00,VWS V14.01,2013-02-15 02:57:00,
2013-02-14 21:03:00,52.8,39.7,30.03,SSE,165,0.0,0.0,61,0.00,,---,0.00,VWS V14.01,2013-02-15 03:03:00,
2013-02-14 21:09:00,52.7,39.6,30.03,SSE,165,0.0,0.0,61,0.00,,---,0.00,VWS V14.01,2013-02-15 03:09:00,
2013-02-14 21:14:00,52.0,40.2,30.03,SSE,165,0.0,0.0,64,0.00,,---,0.00,VWS V14.01,2013-02-15 03:14:00,
2013-02-14 21:19:00,51.1,39.0,30.03,SSE,165,0.0,0.0,63,0.00,,---,0.00,VWS V14.01,2013-02-15 03:19:00,
2013-02-14 21:24:00,51.0,38.9,30.03,SSE,165,0.0,0.0,63,0.00,,---,0.00,VWS V14.01,2013-02-15 03:24:00,
2013-02-14 21:30:00,51.1,39.4,30.03,SSE,165,0.0,0.0,64,0.00,,---,0.00,VWS V14.01,2013-02-15 03:30:00,
2013-02-14 21:35:00,51.4,39.2,30.03,SSE,165,0.0,0.0,63,0.00,,---,0.00,VWS V14.01,2013-02-15 03:35:00,
2013-02-14 21:40:00,51.4,39.7,30.03,SSE,165,0.0,0.0,64,0.00,,---,0.00,VWS V14.01,2013-02-15 03:40:00,
2013-02-14 21:45:00,51.2,39.5,30.03,SSE,165,0.0,0.0,64,0.00,,---,0.00,VWS V14.01,2013-02-15 03:45:00,
2013-02-14 21:50:00,51.1,39.8,30.03,SSE,165,0.0,0.0,65,0.00,,---,0.00,VWS V14.01,2013-02-15 03:50:00,
2013-02-14 21:55:00,50.7,39.8,30.03,SSE,165,0.0,0.0,66,0.00,,---,0.00,VWS V14.01,2013-02-15 03:55:00,
2013-02-14 22:00:00,49.5,39.4,30.03,SSE,165,0.0,0.0,68,0.00,,---,0.00,VWS V14.01,2013-02-15 04:00:00,
2013-02-14 22:05:00,48.7,39.4,30.03,SSE,165,0.0,0.0,70,0.00,,---,0.00,VWS V14.01,2013-02-15 04:05:00,
2013-02-14 22:10:00,48.1,39.2,30.03,SSE,165,0.0,0.0,71,0.00,,---,0.00,VWS V14.01,2013-02-15 04:10:00,
2013-02-14 22:15:00,47.4,38.8,30.03,SSE,165,0.0,0.0,72,0.00,,---,0.00,VWS V14.01,2013-02-15 04:15:00,
2013-02-14 22:20:00,46.9,38.7,30.03,SSE,165,0.0,0.0,73,0.00,,---,0.00,VWS V14.01,2013-02-15 04:20:00,
2013-02-14 22:25:00,46.5,39.0,30.03,SSE,165,0.0,0.0,75,0.00,,---,0.00,VWS V14.01,2013-02-15 04:25:00,
2013-02-14 22:31:00,46.3,38.8,30.03,SSE,165,0.0,0.0,75,0.00,,---,0.00,VWS V14.01,2013-02-15 04:31:00,
2013-02-14 22:36:00,45.8,38.3,30.04,SSE,165,0.0,0.0,75,0.00,,---,0.00,VWS V14.01,2013-02-15 04:36:00,
2013-02-14 22:41:00,45.3,38.5,30.04,SSE,165,0.0,0.0,77,0.00,,---,0.00,VWS V14.01,2013-02-15 04:41:00,
2013-02-14 22:46:00,45.0,38.2,30.05,SSE,165,0.0,0.0,77,0.00,,---,0.00,VWS V14.01,2013-02-15 04:46:00,
2013-02-14 22:51:00,44.9,38.5,30.05,SSE,165,0.0,0.0,78,0.00,,---,0.00,VWS V14.01,2013-02-15 04:51:00,
2013-02-14 22:56:00,44.4,38.0,30.05,SSE,165,3.0,3.0,78,0.00,,---,0.00,VWS V14.01,2013-02-15 04:56:00,
2013-02-14 23:00:00,44.2,38.4,30.06,SSE,165,0.0,1.0,80,0.00,,---,0.00,VWS V14.01,2013-02-15 05:00:00,
2013-02-14 23:01:00,44.1,38.3,30.06,SSE,165,0.0,2.0,80,0.00,,---,0.00,VWS V14.01,2013-02-15 05:01:00,
2013-02-14 23:06:00,44.5,39.0,30.06,SSE,165,0.0,2.0,81,0.00,,---,0.00,VWS V14.01,2013-02-15 05:06:00,
2013-02-14 23:11:00,45.2,39.1,30.06,SSE,165,0.0,1.0,79,0.00,,---,0.00,VWS V14.01,2013-02-15 05:11:00,
2013-02-14 23:16:00,45.8,39.0,30.06,SSE,165,0.0,0.0,77,0.00,,---,0.00,VWS V14.01,2013-02-15 05:16:00,
2013-02-14 23:21:00,45.7,38.9,30.06,SSE,165,0.0,0.0,77,0.00,,---,0.00,VWS V14.01,2013-02-15 05:21:00,
2013-02-14 23:26:00,45.4,39.0,30.07,SSE,165,0.0,0.0,78,0.00,,---,0.00,VWS V14.01,2013-02-15 05:26:00,
2013-02-14 23:31:00,45.2,38.8,30.07,SSE,165,0.0,0.0,78,0.00,,---,0.00,VWS V14.01,2013-02-15 05:31:00,
2013-02-14 23:36:00,44.6,38.2,30.07,SSE,165,0.0,0.0,78,0.00,,---,0.00,VWS V14.01,2013-02-15 05:36:00,
2013-02-14 23:41:00,44.1,38.3,30.08,SSE,165,0.0,0.0,80,0.00,,---,0.00,VWS V14.01,2013-02-15 05:41:00,
2013-02-14 23:47:00,43.7,38.3,30.08,SSE,165,0.0,0.0,81,0.00,,---,0.00,VWS V14.01,2013-02-15 05:47:00,
2013-02-14 23:52:00,43.4,38.0,30.08,SSE,165,0.0,0.0,81,0.00,,---,0.00,VWS V14.01,2013-02-15 05:52:00,
2013-02-14 23:57:00,43.1,37.7,30.08,SSE,165,0.0,0.0,81,0.00,,---,0.00,VWS V14.01,2013-02-15 05:57:00,